• Join FlightAware (Why Join?)
  • Login
  • US Flag 
02:38AM EDT


 

Airport Tracker/Info


-or-


 

Live Flight TrackerFlight Track Log ✈ N1944E ✈ 24-Aug-2013 ✈ KAFO - KCOD

Flight Track Log - Related Links

Times and Time Zones

All times are in EDT time to prevent confusion due to time zone crossing. See the N1944E flight status page for this flight to view local times or setup timezone preferences in your user account.

Time Position Orientation Groundspeed Altitude Reporting Facility
EDT Latitude Longitude Course Direction KTS MPH feet Rate Location/Type
11:38AM 42.9600 -110.7183 33° Northeast 182 209 13,300  Level Salt Lake Center
11:39AM 42.9964 -110.6778 39° Northeast 171 197 14,600 960 Climbing Salt Lake Center
11:40AM 43.0336 -110.6381 38° Northeast 171 197 15,400 780 Climbing Salt Lake Center
11:41AM 43.0725 -110.6003 35° Northeast 172 198 16,300 720 Climbing Salt Lake Center
11:42AM 43.1158 -110.5572 36° Northeast 173 199 17,000 360 Climbing Salt Lake Center
11:43AM 43.1581 -110.5081 40° Northeast 201 231 17,100  Climbing Salt Lake Center
11:44AM 43.2022 -110.4564 40° Northeast 215 247 17,100  Level Salt Lake Center
11:45AM 43.2564 -110.3969 39° Northeast 219 252 17,100  Level Salt Lake Center
11:46AM 43.3022 -110.3475 38° Northeast 213 245 17,100  Level Salt Lake Center
11:47AM 43.3481 -110.2981 38° Northeast 211 243 17,100  Level Salt Lake Center
11:48AM 43.3939 -110.2486 38° Northeast 210 242 17,100 -120 Level Salt Lake Center
11:49AM 43.4403 -110.1997 37° Northeast 212 244 16,900 -120 Descending Salt Lake Center
11:50AM 43.4939 -110.1411 38° Northeast 205 236 16,900  Level Salt Lake Center
11:51AM 43.5406 -110.0939 36° Northeast 207 238 16,900  Level Salt Lake Center
11:52AM 43.5861 -110.0444 38° Northeast 209 241 16,900  Level Salt Lake Center
11:53AM 43.6303 -109.9961 38° Northeast 205 236 16,900  Level Salt Lake Center
11:54AM 43.6756 -109.9458 39° Northeast 207 238 16,900  Level Salt Lake Center
11:55AM 43.7311 -109.8875 37° Northeast 209 241 16,900  Level Salt Lake Center
11:56AM 43.7711 -109.8458 37° Northeast 205 236 16,900  Level Salt Lake Center
11:58AM 43.8211 -109.7906 39° Northeast 207 238 16,900  Level Salt Lake Center
11:59AM 43.8664 -109.7417 38° Northeast 207 238 16,900 -360 Level Salt Lake Center
12:00PM 43.9156 -109.6872 39° Northeast 208 239 16,200 -780 Descending Salt Lake Center
12:01PM 43.9631 -109.6342 39° Northeast 215 247 15,300 -720 Descending Salt Lake Center
12:02PM 44.0197 -109.5703 39° Northeast 226 260 14,800 -300 Descending Salt Lake Center
12:03PM 44.0644 -109.5200 39° Northeast 225 259 14,800 -240 Level Salt Lake Center
12:04PM 44.1111 -109.4711 37° Northeast 209 241 14,400 -660 Descending Salt Lake Center
12:05PM 44.1517 -109.4236 40° Northeast 202 232 13,500 -660 Descending Salt Lake Center
12:06PM 44.1942 -109.3789 37° Northeast 201 231 13,100 -420 Descending Salt Lake Center